FW7092 Weather Reports


Display with metric or nautical units.
time (UTC)temp
F
wind
direction
speed
MPH
gust
MPH
rain 1hr
in
rain 24hr
in
rain mn
in
humidity
%
barometer
mb
20260904032246 70 192 0.0 0.0 0.00 0.70 0.70 99 1017.1
20260904031741 70 326 0.0 1.0 0.00 0.70 0.70 99 1016.7
20260904031237 70 249 0.0 0.0 0.00 0.70 0.70 99 1016.8
20260904030732 70 242 0.0 0.0 0.00 0.70 0.70 99 1016.7
20260904030227 70 221 0.0 0.0 0.00 0.70 0.70 99 1016.7
20260904025724 70 55 0.0 1.0 0.00 0.70 0.70 99 1016.8
20260904025218 70 234 0.0 1.0 0.00 0.70 0.70 99 1016.8
20260904024714 70 290 1.0 2.0 0.00 0.70 0.70 99 1016.6
20260904024209 70 290 1.0 2.0 0.00 0.70 0.70 99 1016.6
20260904023706 70 217 0.0 0.0 0.00 0.70 0.70 99 1016.5
20260904023201 70 218 0.0 3.0 0.00 0.70 0.70 99 1016.3
20260904022655 70 218 2.0 2.0 0.00 0.70 0.70 99 1016.2
20260904022152 70 233 0.0 1.0 0.00 0.70 0.70 99 1016.3
20260904021648 70 224 0.0 1.0 0.00 0.70 0.70 99 1016.3
20260904021142 70 216 1.0 2.0 0.00 0.70 0.70 99 1016.2
20260904020638 70 219 3.0 3.0 0.00 0.70 0.70 99 1016.5
20260904020127 70 224 3.0 3.0 0.00 0.70 0.70 99 1016.2
20260904015627 70 244 2.0 2.0 0.00 0.70 0.70 99 1016.3
20260904015125 70 231 1.0 1.0 0.00 0.70 0.70 99 1016.6
20260904014625 71 222 2.0 3.0 0.00 0.70 0.70 98 1016.7
20260904014120 71 245 0.0 0.0 0.00 0.70 0.70 98 1016.3
20260904013617 71 245 0.0 0.0 0.00 0.70 0.70 98 1016.2
20260904013113 71 245 0.0 0.0 0.00 0.70 0.70 98 1016.2
20260904012609 71 226 0.0 0.0 0.00 0.70 0.70 98 1016.4
20260904012108 71 217 0.0 0.0 0.00 0.70 0.70 98 1016.3
20260904011607 71 217 0.0 0.0 0.00 0.70 0.70 98 1016.2
20260904011103 71 210 0.0 0.0 0.00 0.70 0.70 98 1016.2
20260904010558 71 224 0.0 0.0 0.00 0.70 0.70 98 1016.1
20260904010055 71 224 0.0 0.0 0.00 0.70 0.70 98 1015.9
20260904005554 71 222 0.0 0.0 0.00 0.70 0.70 98 1016.1
20260904005050 71 223 1.0 2.0 0.00 0.70 0.70 98 1016.5
20260904004545 71 215 0.0 1.0 0.00 0.70 0.70 98 1016.4
20260904004040 72 252 2.0 2.0 0.00 0.70 0.70 98 1016.3
20260904003536 72 176 0.0 1.0 0.00 0.70 0.70 98 1016.1
20260904003031 72 165 0.0 1.0 0.00 0.70 0.70 97 1016.1
20260904002527 72 201 1.0 2.0 0.00 0.70 0.70 97 1016.4
20260904002027 72 205 1.0 2.0 0.00 0.70 0.70 97 1016.5
20260904001523 72 204 1.0 2.0 0.00 0.70 0.70 97 1016.3
20260904001022 72 216 0.0 0.0 0.00 0.70 0.70 97 1016.3
20260904000521 72 206 1.0 1.0 0.00 0.70 0.70 97 1016.3
20260904000018 72 202 0.0 0.0 0.00 0.70 0.70 97 1016.3
20260903235512 72 216 0.0 0.0 0.00 0.70 0.70 97 1016.3
20260903235007 72 215 0.0 0.0 0.00 0.70 0.70 96 1016.4
20260903234503 72 214 0.0 0.0 0.00 0.70 0.70 96 1016.6
20260903233958 72 62 1.0 1.0 0.00 0.70 0.70 96 1016.4
20260903233454 73 147 0.0 1.0 0.00 0.70 0.70 96 1016.4
20260903232949 73 101 0.0 1.0 0.00 0.70 0.70 96 1016.5
20260903232445 73 156 0.0 0.0 0.00 0.70 0.70 95 1016.2
20260903231944 73 71 0.0 1.0 0.00 0.70 0.70 95 1016.5
20260903231439 73 54 1.0 2.0 0.00 0.70 0.70 95 1016.3
20260903230933 73 67 1.0 2.0 0.00 0.70 0.70 94 1016.2
20260903230430 73 143 2.0 2.0 0.00 0.70 0.70 94 1016.2
20260903225926 73 88 3.0 3.0 0.00 0.70 0.70 94 1016.5
20260903225421 73 101 3.0 3.0 0.00 0.70 0.70 94 1016.7
20260903224918 73 351 2.0 2.0 0.00 0.70 0.70 94 1016.7
20260903224413 73 68 1.0 6.0 0.00 0.70 0.70 93 1016.8
20260903223909 73 98 4.0 5.0 0.00 0.70 0.70 92 1016.6
20260903223408 73 48 6.0 8.0 0.00 0.70 0.70 92 1016.6
20260903222907 72 37 3.0 6.0 0.00 0.70 0.70 95 1016.5
20260903222403 72 98 5.0 7.0 0.00 0.70 0.70 97 1016.5
20260903221857 72 109 1.0 5.0 0.00 0.70 0.70 97 1016.5
20260903221356 72 68 3.0 5.0 0.00 0.70 0.70 97 1017.0
20260903220854 72 213 1.0 5.0 0.00 0.70 0.70 97 1017.7
20260903220348 72 226 3.0 3.0 0.00 0.70 0.70 96 1018.1
20260903215847 71 111 1.0 3.0 0.00 0.70 0.70 96 1017.2
20260903215344 71 92 0.0 3.0 0.00 0.70 0.70 97 1016.9
20260903214842 71 65 3.0 6.0 0.00 0.70 0.70 97 1016.4
20260903214338 71 64 2.0 2.0 0.00 0.70 0.70 98 1016.8
20260903213831 71 285 2.0 2.0 0.07 0.70 0.70 98 1017.2
20260903213321 71 240 0.0 2.0 0.57 0.70 0.70 97 1017.3
20260903212817 71 236 1.0 2.0 1.63 0.69 0.69 97 1017.5
20260903212313 71 280 4.0 8.0 2.06 0.56 0.56 97 1018.0
20260903211813 72 245 3.0 9.0 1.13 0.33 0.33 96 1017.3
20260903211309 72 198 1.0 8.0 0.64 0.19 0.19 96 1016.6
20260903210805 73 45 4.0 6.0 0.78 0.14 0.14 95 1017.1
20260903210300 73 40 5.0 13.0 0.42 0.07 0.07 94 1016.9
20260903205759 75 339 3.0 13.0 0.07 0.01 0.01 91 1017.4
20260903205259 83 296 11.0 25.0 0.00 0.00 0.00 81 1016.3
20260903204754 87 257 4.0 7.0 0.00 0.00 0.00 72 1015.1
20260903204250 87 231 5.0 7.0 0.00 0.00 0.00 72 1013.9
20260903203745 88 247 5.0 8.0 0.00 0.00 0.00 71 1013.6
20260903203241 88 236 6.0 8.0 0.00 0.00 0.00 71 1013.4
20260903202735 88 218 6.0 8.0 0.00 0.00 0.00 72 1013.4
20260903202232 89 233 7.0 8.0 0.00 0.00 0.00 71 1013.8
20260903201730 89 207 4.0 10.0 0.00 0.00 0.00 70 1013.5
20260903201226 90 203 7.0 10.0 0.00 0.00 0.00 69 1013.4
20260903200725 91 217 9.0 9.0 0.00 0.00 0.00 67 1013.5
20260903200221 91 237 5.0 7.0 0.00 0.00 0.00 66 1013.5
20260903195716 91 219 5.0 8.0 0.00 0.00 0.00 65 1013.4
20260903195212 92 241 3.0 9.0 0.00 0.00 0.00 67 1013.6
20260903194712 91 224 6.0 8.0 0.00 0.00 0.00 65 1013.3
20260903194208 91 234 4.0 6.0 0.00 0.00 0.00 67 1013.4
20260903193708 92 241 6.0 11.0 0.00 0.00 0.00 63 1013.8
20260903193203 93 225 6.0 9.0 0.00 0.00 0.00 64 1014.0
20260903192659 93 236 5.0 7.0 0.00 0.00 0.00 64 1014.3
20260903192154 94 231 6.0 8.0 0.00 0.00 0.00 61 1014.5
20260903191651 93 235 5.0 7.0 0.00 0.00 0.00 63 1014.8
20260903191150 92 248 4.0 7.0 0.00 0.00 0.00 65 1014.9
20260903190645 92 250 7.0 9.0 0.00 0.00 0.00 64 1015.0
20260903190139 93 235 9.0 10.0 0.00 0.00 0.00 62 1014.9
20260903185634 93 241 8.0 10.0 0.00 0.00 0.00 62 1015.1
20260903185129 92 238 5.0 7.0 0.00 0.00 0.00 65 1015.5
20260903184626 91 233 7.0 10.0 0.00 0.00 0.00 66 1015.6
20260903184121 92 238 6.0 9.0 0.00 0.00 0.00 65 1015.4
20260903183620 93 239 6.0 8.0 0.00 0.00 0.00 63 1015.2
20260903183115 93 239 7.0 11.0 0.00 0.00 0.00 62 1015.5
20260903182614 93 234 8.0 9.0 0.00 0.00 0.00 61 1015.5
20260903182110 93 246 7.0 8.0 0.00 0.00 0.00 60 1015.4
20260903181608 94 227 5.0 6.0 0.00 0.00 0.00 59 1015.6
20260903181103 93 237 9.0 11.0 0.00 0.00 0.00 62 1015.5
20260903180558 93 235 8.0 11.0 0.00 0.00 0.00 63 1015.5
20260903180053 93 262 8.0 11.0 0.00 0.00 0.00 61 1015.5
20260903175552 93 237 6.0 9.0 0.00 0.00 0.00 61 1015.4
20260903175051 93 228 7.0 8.0 0.00 0.00 0.00 65 1015.6
20260903174546 92 205 6.0 9.0 0.00 0.00 0.00 66 1015.5
20260903174041 92 213 5.0 10.0 0.00 0.00 0.00 66 1015.7
20260903173536 92 205 5.0 9.0 0.00 0.00 0.00 66 1015.8
20260903173033 91 199 7.0 13.0 0.00 0.00 0.00 66 1015.8
20260903172527 91 228 6.0 9.0 0.00 0.00 0.00 67 1015.9
20260903172022 92 219 5.0 8.0 0.00 0.00 0.00 66 1016.1
20260903171517 91 179 5.0 10.0 0.00 0.00 0.00 70 1016.0
20260903171013 91 240 5.0 7.0 0.00 0.00 0.00 68 1016.2
20260903170512 91 209 5.0 9.0 0.00 0.00 0.00 69 1016.1
20260903170007 90 232 4.0 10.0 0.00 0.00 0.00 68 1016.1
20260903165504 91 230 6.0 11.0 0.00 0.00 0.00 68 1016.2
20260903164954 90 238 5.0 7.0 0.00 0.00 0.00 68 1016.3
20260903164449 91 208 6.0 8.0 0.00 0.00 0.00 67 1016.1
20260903163949 91 208 8.0 9.0 0.00 0.00 0.00 67 1016.2
20260903163445 90 217 5.0 6.0 0.00 0.00 0.00 69 1016.4
20260903162941 90 225 8.0 9.0 0.00 0.00 0.00 70 1016.3
20260903162437 90 251 5.0 7.0 0.00 0.00 0.00 71 1016.5
20260903161932 90 241 5.0 8.0 0.00 0.00 0.00 70 1016.5
20260903161428 89 224 4.0 6.0 0.00 0.00 0.00 72 1016.6
20260903160924 89 240 4.0 6.0 0.00 0.00 0.00 72 1016.5
20260903160422 89 228 5.0 8.0 0.00 0.00 0.00 71 1016.6
20260903155921 89 230 6.0 9.0 0.00 0.00 0.00 71 1016.4
20260903155417 89 242 3.0 5.0 0.00 0.00 0.00 72 1016.4
20260903154913 89 237 4.0 7.0 0.00 0.00 0.00 72 1016.5
20260903154409 88 224 5.0 8.0 0.00 0.00 0.00 72 1016.7
20260903153908 88 225 3.0 3.0 0.00 0.00 0.00 72 1016.6
20260903153404 88 241 5.0 9.0 0.00 0.00 0.00 72 1016.6
20260903152901 87 238 5.0 6.0 0.00 0.00 0.00 74 1016.6
20260903152356 87 222 4.0 6.0 0.00 0.00 0.00 75 1016.6
20260903151851 87 259 5.0 8.0 0.00 0.00 0.00 74 1016.5
20260903151346 87 245 5.0 7.0 0.00 0.00 0.00 74 1016.3
20260903150846 87 242 5.0 10.0 0.00 0.00 0.00 75 1016.4
20260903150341 87 216 5.0 7.0 0.00 0.00 0.00 74 1016.2
20260903145836 86 219 5.0 7.0 0.00 0.00 0.00 75 1016.4
20260903145331 86 245 5.0 7.0 0.00 0.00 0.00 76 1016.7
20260903144830 86 262 7.0 8.0 0.00 0.00 0.00 74 1016.5
20260903144326 85 262 4.0 7.0 0.00 0.00 0.00 76 1016.4
20260903143821 85 249 6.0 8.0 0.00 0.00 0.00 76 1016.5
20260903143318 85 248 5.0 9.0 0.00 0.00 0.00 77 1016.2
20260903142813 85 231 4.0 6.0 0.00 0.00 0.00 77 1016.4
20260903142309 84 238 5.0 8.0 0.00 0.00 0.00 78 1016.3
20260903141805 84 236 5.0 6.0 0.00 0.00 0.00 79 1016.2
20260903141300 84 249 5.0 8.0 0.00 0.00 0.00 79 1016.3
20260903140800 84 257 5.0 8.0 0.00 0.00 0.00 79 1016.4
20260903140255 84 247 4.0 7.0 0.00 0.00 0.00 78 1016.4
20260903135751 83 256 6.0 7.0 0.00 0.00 0.00 79 1016.4
20260903135246 83 245 5.0 7.0 0.00 0.00 0.00 79 1016.7
20260903134745 83 239 5.0 7.0 0.00 0.00 0.00 80 1016.6
20260903134241 83 242 5.0 8.0 0.00 0.00 0.00 81 1016.7
20260903133738 82 245 7.0 8.0 0.00 0.00 0.00 81 1016.7
20260903133235 82 257 5.0 10.0 0.00 0.00 0.00 82 1016.6
20260903132735 81 227 4.0 8.0 0.00 0.00 0.00 84 1016.4
20260903132230 81 248 6.0 7.0 0.00 0.00 0.00 84 1016.6
20260903131725 80 240 6.0 7.0 0.00 0.00 0.00 85 1016.5
20260903131224 80 242 8.0 9.0 0.00 0.00 0.00 85 1016.6
20260903130719 80 232 5.0 7.0 0.00 0.00 0.00 87 1016.5
20260903130214 79 240 4.0 7.0 0.00 0.00 0.00 87 1016.7
20260903125712 78 206 3.0 6.0 0.00 0.00 0.00 89 1016.6
20260903125208 78 218 5.0 7.0 0.00 0.00 0.00 90 1016.7
20260903124706 78 243 4.0 5.0 0.00 0.00 0.00 90 1016.8
20260903124202 77 231 3.0 6.0 0.00 0.00 0.00 91 1016.9
20260903123701 77 246 4.0 5.0 0.00 0.00 0.00 91 1016.9
20260903123200 77 229 3.0 5.0 0.00 0.00 0.00 92 1016.9
20260903122659 76 234 3.0 5.0 0.00 0.00 0.00 94 1016.9
20260903122154 75 224 3.0 3.0 0.00 0.00 0.00 95 1016.8
20260903121653 75 223 4.0 5.0 0.00 0.00 0.00 95 1016.8
20260903121149 75 229 3.0 6.0 0.00 0.00 0.00 96 1017.0
20260903120648 74 236 4.0 6.0 0.00 0.00 0.00 96 1016.9
20260903120143 74 225 3.0 7.0 0.00 0.00 0.00 96 1017.0
20260903115641 74 230 3.0 5.0 0.00 0.00 0.00 97 1017.0
20260903115137 74 215 2.0 5.0 0.00 0.00 0.00 97 1016.9
20260903114632 73 218 3.0 5.0 0.00 0.00 0.00 97 1016.7
20260903114127 73 220 3.0 5.0 0.00 0.00 0.00 98 1016.9
20260903113622 73 218 3.0 5.0 0.00 0.00 0.00 98 1016.8
20260903113119 73 206 3.0 5.0 0.00 0.00 0.00 98 1016.7
20260903112615 73 217 4.0 5.0 0.00 0.00 0.00 98 1016.6
20260903112114 73 244 2.0 2.0 0.00 0.00 0.00 98 1016.7
20260903111613 72 230 2.0 2.0 0.00 0.00 0.00 98 1016.6
20260903111109 72 217 2.0 3.0 0.00 0.00 0.00 98 1016.5
20260903110605 73 231 2.0 2.0 0.00 0.00 0.00 98 1016.4
20260903110100 73 232 1.0 2.0 0.00 0.00 0.00 98 1016.4
20260903105555 73 236 1.0 2.0 0.00 0.00 0.00 98 1016.5
20260903105050 73 240 2.0 2.0 0.00 0.00 0.00 98 1016.4
20260903104549 73 238 2.0 2.0 0.00 0.00 0.00 98 1016.3
20260903104045 73 238 2.0 2.0 0.00 0.00 0.00 97 1016.2
20260903103541 73 235 1.0 1.0 0.00 0.00 0.00 97 1016.3
20260903103037 73 237 1.0 1.0 0.00 0.00 0.00 97 1016.1
20260903102533 73 240 2.0 2.0 0.00 0.00 0.00 97 1016.1
20260903102031 73 250 2.0 2.0 0.00 0.00 0.00 97 1015.9
20260903101526 73 264 2.0 2.0 0.00 0.00 0.00 97 1016.2
20260903101022 73 240 2.0 2.0 0.00 0.00 0.00 96 1016.0
20260903100516 74 234 1.0 2.0 0.00 0.00 0.00 96 1016.1
20260903100015 74 229 1.0 1.0 0.00 0.00 0.00 96 1016.2
20260903095508 74 227 1.0 2.0 0.00 0.00 0.00 96 1016.0
20260903095003 74 222 1.0 2.0 0.00 0.00 0.00 96 1016.2
20260903094503 75 232 1.0 1.0 0.00 0.00 0.00 96 1015.9
20260903093958 75 242 1.0 2.0 0.00 0.00 0.00 96 1016.0
20260903093453 75 245 1.0 2.0 0.00 0.00 0.00 96 1016.0
20260903092949 75 236 2.0 2.0 0.00 0.00 0.00 95 1015.8
20260903092448 75 231 1.0 2.0 0.00 0.00 0.00 95 1015.7
20260903091948 75 227 3.0 3.0 0.00 0.00 0.00 96 1015.8
20260903091446 75 232 2.0 2.0 0.00 0.00 0.00 96 1015.9
20260903090941 75 247 2.0 3.0 0.00 0.00 0.00 96 1015.9
20260903090437 75 227 2.0 3.0 0.00 0.00 0.00 96 1015.8
20260903085935 75 230 2.0 3.0 0.00 0.00 0.00 96 1015.9
20260903085434 75 222 3.0 3.0 0.00 0.00 0.00 96 1015.8
20260903084934 75 223 3.0 5.0 0.00 0.00 0.00 96 1015.9
20260903084432 75 221 3.0 5.0 0.00 0.00 0.00 96 1015.8
20260903083928 75 217 3.0 3.0 0.00 0.00 0.00 96 1015.7
20260903083424 75 222 3.0 5.0 0.00 0.00 0.00 96 1015.9
20260903082922 75 216 3.0 3.0 0.00 0.00 0.00 96 1015.7
20260903082418 75 216 3.0 3.0 0.00 0.00 0.00 96 1015.7
20260903081913 75 222 3.0 3.0 0.00 0.00 0.00 96 1015.9
20260903081408 75 216 3.0 3.0 0.00 0.00 0.00 96 1015.8
20260903080904 75 218 3.0 3.0 0.00 0.00 0.00 96 1015.8
20260903080355 75 218 3.0 3.0 0.00 0.00 0.00 96 1016.0
20260903075855 75 215 2.0 2.0 0.00 0.00 0.00 96 1015.9
20260903075351 75 216 2.0 3.0 0.00 0.00 0.00 96 1016.1
20260903074845 75 216 3.0 3.0 0.00 0.00 0.00 96 1016.1
20260903074345 76 229 2.0 2.0 0.00 0.00 0.00 95 1016.2
20260903073840 76 221 3.0 3.0 0.00 0.00 0.00 95 1016.1
20260903073335 76 216 3.0 3.0 0.00 0.00 0.00 95 1015.9
20260903072831 76 208 4.0 5.0 0.00 0.00 0.00 95 1016.1
20260903072327 75 219 3.0 3.0 0.00 0.00 0.00 96 1015.9
20260903071824 76 218 3.0 3.0 0.00 0.00 0.00 95 1016.0
20260903071319 75 214 3.0 3.0 0.00 0.00 0.00 96 1015.9
20260903070814 76 212 2.0 2.0 0.00 0.00 0.00 95 1015.8
20260903070309 76 214 2.0 2.0 0.00 0.00 0.00 95 1015.9
20260903065804 76 211 0.0 0.0 0.00 0.00 0.00 96 1016.0
20260903065306 76 213 0.0 0.0 0.00 0.00 0.00 96 1015.8
20260903064803 76 170 0.0 0.0 0.00 0.00 0.00 96 1015.9
20260903064258 75 187 0.0 1.0 0.00 0.00 0.00 96 1015.9
20260903063754 75 104 1.0 2.0 0.00 0.00 0.00 96 1015.8
20260903063249 75 204 0.0 0.0 0.00 0.00 0.00 96 1016.0
20260903062745 75 216 0.0 0.0 0.00 0.00 0.00 96 1016.0
20260903062244 75 214 2.0 2.0 0.00 0.00 0.00 96 1016.0
20260903061741 75 216 2.0 2.0 0.00 0.00 0.00 96 1016.1
20260903061240 75 216 2.0 3.0 0.00 0.00 0.00 96 1016.0
20260903060736 75 211 1.0 2.0 0.00 0.00 0.00 96 1015.9
20260903060235 75 220 2.0 2.0 0.00 0.00 0.00 96 1016.0
20260903055733 75 218 2.0 3.0 0.00 0.00 0.00 96 1015.8
20260903055232 75 220 3.0 3.0 0.00 0.00 0.00 96 1015.9
20260903054727 75 205 3.0 3.0 0.00 0.00 0.00 95 1015.7
20260903054221 75 213 3.0 3.0 0.00 0.00 0.00 95 1015.9
20260903053718 75 220 2.0 2.0 0.00 0.00 0.00 95 1015.8
20260903053213 76 229 1.0 1.0 0.00 0.00 0.00 95 1016.0
20260903052709 76 232 1.0 1.0 0.00 0.00 0.00 94 1016.0
20260903052205 76 249 2.0 2.0 0.00 0.00 0.00 94 1015.8
20260903051705 76 243 2.0 2.0 0.00 0.00 0.00 94 1015.7
20260903051200 76 238 1.0 1.0 0.00 0.00 0.00 94 1015.7
20260903050656 77 232 0.0 0.0 0.00 0.00 0.00 95 1015.8
20260903050154 76 231 1.0 1.0 0.00 0.00 0.00 95 1015.6
20260903045650 76 226 1.0 1.0 0.00 0.00 0.00 93 1015.6
20260903045146 77 221 2.0 3.0 0.00 0.00 0.00 93 1015.6
20260903044642 77 225 3.0 3.0 0.00 0.00 0.00 93 1015.6
20260903044137 77 223 1.0 2.0 0.00 0.00 0.00 93 1015.5
20260903043634 77 228 0.0 0.0 0.00 0.00 0.00 93 1015.6
20260903043133 77 225 0.0 0.0 0.00 0.00 0.00 92 1015.4
20260903042632 78 223 0.0 0.0 0.00 0.00 0.00 92 1015.6
20260903042127 78 220 1.0 1.0 0.00 0.00 0.00 92 1015.5
20260903041624 78 219 1.0 1.0 0.00 0.00 0.00 92 1015.4
20260903041120 78 225 1.0 1.0 0.00 0.00 0.00 92 1015.4
20260903040619 78 227 1.0 2.0 0.00 0.00 0.00 91 1015.1
20260903040115 78 208 2.0 3.0 0.00 0.00 0.00 91 1015.1
20260903035610 78 226 3.0 5.0 0.00 0.00 0.00 90 1014.8
20260903035106 78 214 5.0 6.0 0.00 0.00 0.00 90 1014.9
20260903034601 78 199 4.0 6.0 0.00 0.00 0.00 90 1014.9
20260903034056 79 226 4.0 5.0 0.00 0.00 0.00 90 1014.9
20260903033551 79 239 4.0 6.0 0.00 0.00 0.00 90 1014.9
20260903033046 79 224 4.0 5.0 0.00 0.00 0.00 89 1014.6